Precipitable_Water
0.29 0.28 0.28 0.28 0.28 0.27 0.27 0.27 0.27 0.26 0.28 0.25 0.25 0.25 0.11 0.11 0.10 0.19 0.23 0.24 0.14 0.09 0.08 0.10 0.09 0.09 0.12 0.17 0.15 0.17 0.14 0.12 0.13 0.11 0.13 0.10 0.13 0.11 0.11 0.10 0.10 0.12 0.11 0.10 0.10 0.11 0.09 0.10 0.08 0.09 0.08 0.10 0.12 0.15 0.16 0.18 0.16 0.15 0.12 0.13 0.15 0.14 0.10 0.06 0.05 0.06 0.06 0.08 0.10 0.11 0.12 0.12 0.10 0.12 0.14 0.12 0.10 0.11 0.11 0.11 0.13 0.11 0.10 0.09 0.09 0.08 0.06
0.27 0.27 0.26 0.26 0.26 0.26 0.25 0.25 0.26 0.26 0.29 0.27 0.26 0.11 0.09 0.11 0.11 0.13 0.20 0.27 0.19 0.06 0.04 0.05 0.07 0.09 0.12 0.12 0.11 0.15 0.12 0.11 0.09 0.10 0.11 0.10 0.10 0.09 0.10 0.12 0.12 0.10 0.15 0.13 0.09 0.12 0.06 0.10 0.09 0.07 0.10 0.08 0.15 0.14 0.15 0.17 0.13 0.12 0.11 0.09 0.14 0.07 0.10 0.07 0.05 0.04 0.04 0.04 0.05 0.05 0.11 0.12 0.10 0.09 0.10 0.12 0.13 0.14 0.15 0.16 0.16 0.12 0.10 0.09 0.09 0.06 0.06
0.26 0.25 0.25 0.25 0.25 0.25 0.25 0.25 0.25 0.26 0.27 0.27 0.22 0.08 0.10 0.09 0.11 0.11 0.13 0.18 0.16 0.06 0.09 0.07 0.07 0.08 0.08 0.08 0.08 0.09 0.09 0.13 0.12 0.11 0.10 0.14 0.12 0.12 0.09 0.12 0.13 0.11 0.14 0.12 0.13 0.13 0.09 0.07 0.11 0.10 0.09 0.08 0.15 0.14 0.15 0.18 0.14 0.18 0.17 0.16 0.19 0.09 0.08 0.08 0.05 0.04 0.04 0.03 0.04 0.04 0.06 0.07 0.09 0.10 0.10 0.13 0.13 0.12 0.12 0.11 0.13 0.11 0.10 0.11 0.09 0.08 0.09
0.25 0.25 0.24 0.23 0.22 0.22 0.22 0.22 0.23 0.23 0.25 0.27 0.28 0.18 0.12 0.08 0.05 0.08 0.09 0.12 0.11 0.13 0.15 0.10 0.08 0.07 0.08 0.07 0.09 0.10 0.08 0.12 0.15 0.17 0.11 0.15 0.15 0.14 0.12 0.14 0.15 0.10 0.10 0.08 0.09 0.08 0.11 0.09 0.08 0.09 0.07 0.09 0.12 0.15 0.16 0.16 0.16 0.16 0.17 0.17 0.16 0.10 0.11 0.10 0.08 0.07 0.06 0.06 0.07 0.09 0.12 0.11 0.09 0.09 0.09 0.09 0.12 0.14 0.15 0.15 0.13 0.09 0.10 0.11 0.11 0.11 0.12
0.24 0.23 0.22 0.22 0.21 0.21 0.21 0.20 0.20 0.22 0.25 0.27 0.18 0.13 0.11 0.11 0.06 0.07 0.06 0.11 0.10 0.11 0.13 0.12 0.12 0.08 0.12 0.07 0.11 0.07 0.09 0.10 0.12 0.19 0.09 0.13 0.14 0.15 0.13 0.11 0.08 0.09 0.09 0.08 0.08 0.09 0.08 0.12 0.10 0.08 0.08 0.10 0.11 0.16 0.16 0.17 0.18 0.17 0.16 0.19 0.16 0.12 0.09 0.09 0.10 0.10 0.09 0.10 0.10 0.11 0.12 0.11 0.11 0.11 0.10 0.10 0.11 0.14 0.13 0.11 0.09 0.12 0.13 0.10 0.11 0.13 0.13
0.23 0.22 0.22 0.21 0.20 0.20 0.20 0.19 0.19 0.18 0.19 0.22 0.18 0.09 0.12 0.07 0.12 0.15 0.15 0.07 0.05 0.06 0.07 0.10 0.09 0.11 0.10 0.09 0.11 0.08 0.07 0.08 0.07 0.12 0.14 0.14 0.15 0.10 0.13 0.11 0.12 0.12 0.10 0.10 0.07 0.07 0.08 0.09 0.07 0.09 0.10 0.10 0.11 0.11 0.16 0.15 0.18 0.18 0.16 0.20 0.14 0.11 0.08 0.10 0.11 0.10 0.12 0.12 0.11 0.12 0.12 0.12 0.13 0.12 0.11 0.11 0.12 0.12 0.11 0.11 0.12 0.14 0.13 0.11 0.13 0.15 0.15
0.22 0.22 0.21 0.21 0.20 0.20 0.19 0.18 0.18 0.19 0.18 0.23 0.16 0.07 0.11 0.11 0.11 0.11 0.16 0.06 0.09 0.10 0.10 0.11 0.09 0.08 0.10 0.10 0.11 0.08 0.08 0.07 0.09 0.09 0.10 0.12 0.10 0.12 0.07 0.08 0.10 0.11 0.13 0.11 0.08 0.09 0.06 0.06 0.09 0.09 0.09 0.10 0.10 0.09 0.11 0.18 0.19 0.17 0.15 0.17 0.17 0.12 0.09 0.10 0.12 0.10 0.11 0.10 0.11 0.12 0.12 0.12 0.12 0.11 0.11 0.13 0.12 0.11 0.11 0.12 0.14 0.16 0.16 0.17 0.17 0.17 0.17
0.22 0.21 0.21 0.20 0.20 0.20 0.19 0.19 0.20 0.22 0.23 0.20 0.09 0.10 0.07 0.06 0.06 0.07 0.11 0.11 0.10 0.10 0.11 0.10 0.08 0.08 0.11 0.07 0.09 0.10 0.09 0.08 0.11 0.12 0.11 0.08 0.09 0.14 0.09 0.09 0.11 0.12 0.13 0.12 0.09 0.10 0.11 0.10 0.08 0.11 0.11 0.10 0.12 0.11 0.11 0.11 0.15 0.17 0.14 0.15 0.18 0.11 0.08 0.12 0.11 0.09 0.08 0.09 0.10 0.12 0.13 0.12 0.11 0.10 0.12 0.11 0.11 0.11 0.11 0.14 0.15 0.18 0.17 0.18 0.19 0.19 0.20
0.21 0.20 0.20 0.20 0.19 0.19 0.19 0.20 0.20 0.20 0.25 0.09 0.09 0.10 0.13 0.12 0.12 0.10 0.07 0.06 0.08 0.10 0.09 0.08 0.07 0.07 0.09 0.08 0.10 0.10 0.10 0.09 0.12 0.10 0.15 0.11 0.10 0.11 0.09 0.11 0.12 0.14 0.13 0.13 0.11 0.14 0.13 0.13 0.13 0.13 0.13 0.09 0.14 0.11 0.12 0.16 0.13 0.14 0.14 0.15 0.15 0.14 0.10 0.13 0.11 0.09 0.07 0.08 0.09 0.10 0.12 0.12 0.11 0.10 0.11 0.11 0.11 0.12 0.14 0.14 0.18 0.17 0.16 0.18 0.18 0.17 0.18
0.21 0.20 0.19 0.18 0.18 0.18 0.17 0.16 0.16 0.16 0.14 0.09 0.09 0.08 0.13 0.13 0.16 0.17 0.10 0.08 0.11 0.10 0.13 0.13 0.10 0.07 0.09 0.11 0.10 0.09 0.09 0.12 0.15 0.10 0.14 0.15 0.16 0.15 0.14 0.13 0.13 0.11 0.11 0.10 0.11 0.14 0.15 0.15 0.16 0.16 0.17 0.18 0.18 0.19 0.19 0.19 0.16 0.14 0.13 0.16 0.13 0.13 0.12 0.10 0.11 0.08 0.07 0.08 0.10 0.11 0.11 0.09 0.07 0.08 0.11 0.14 0.15 0.18 0.17 0.19 0.20 0.20 0.21 0.17 0.15 0.17 0.23
0.20 0.19 0.18 0.17 0.16 0.16 0.16 0.15 0.14 0.14 0.12 0.08 0.09 0.10 0.14 0.11 0.10 0.10 0.10 0.07 0.09 0.09 0.09 0.08 0.07 0.09 0.12 0.12 0.10 0.12 0.11 0.12 0.14 0.08 0.09 0.17 0.16 0.19 0.17 0.14 0.11 0.11 0.10 0.13 0.18 0.19 0.19 0.19 0.19 0.20 0.19 0.18 0.18 0.19 0.19 0.19 0.19 0.17 0.15 0.14 0.15 0.15 0.13 0.12 0.15 0.10 0.08 0.09 0.11 0.11 0.08 0.05 0.06 0.12 0.17 0.19 0.17 0.19 0.17 0.18 0.20 0.22 0.22 0.21 0.24 0.24 0.26
0.21 0.20 0.19 0.18 0.16 0.16 0.15 0.15 0.14 0.15 0.14 0.15 0.14 0.14 0.17 0.19 0.16 0.10 0.08 0.07 0.08 0.10 0.08 0.08 0.10 0.11 0.10 0.11 0.12 0.10 0.11 0.11 0.11 0.16 0.11 0.13 0.16 0.19 0.17 0.15 0.13 0.09 0.16 0.22 0.21 0.21 0.21 0.21 0.20 0.21 0.19 0.17 0.18 0.19 0.19 0.17 0.17 0.20 0.20 0.15 0.14 0.14 0.14 0.13 0.15 0.12 0.09 0.11 0.12 0.08 0.05 0.06 0.11 0.15 0.19 0.22 0.21 0.21 0.20 0.22 0.23 0.24 0.25 0.25 0.24 0.25 0.26
0.21 0.21 0.20 0.20 0.19 0.19 0.19 0.18 0.18 0.18 0.18 0.16 0.14 0.13 0.20 0.22 0.14 0.10 0.09 0.08 0.08 0.09 0.08 0.09 0.11 0.11 0.11 0.12 0.11 0.11 0.12 0.13 0.15 0.15 0.15 0.13 0.14 0.18 0.18 0.15 0.13 0.14 0.22 0.18 0.19 0.17 0.12 0.10 0.12 0.13 0.14 0.15 0.17 0.17 0.17 0.15 0.16 0.19 0.20 0.20 0.17 0.14 0.14 0.14 0.13 0.14 0.13 0.11 0.09 0.06 0.06 0.10 0.14 0.17 0.20 0.21 0.19 0.19 0.19 0.19 0.23 0.26 0.26 0.26 0.25 0.26 0.26
0.21 0.21 0.21 0.21 0.21 0.22 0.23 0.23 0.22 0.21 0.20 0.18 0.16 0.19 0.21 0.20 0.12 0.10 0.10 0.08 0.09 0.11 0.11 0.10 0.11 0.10 0.12 0.11 0.12 0.12 0.13 0.12 0.13 0.15 0.12 0.16 0.14 0.15 0.18 0.19 0.20 0.23 0.21 0.20 0.16 0.15 0.10 0.12 0.09 0.09 0.09 0.11 0.11 0.12 0.13 0.15 0.17 0.17 0.17 0.19 0.21 0.18 0.17 0.16 0.12 0.15 0.09 0.10 0.10 0.09 0.12 0.12 0.13 0.15 0.18 0.19 0.18 0.19 0.20 0.18 0.22 0.28 0.27 0.26 0.24 0.24 0.24
0.20 0.20 0.21 0.23 0.24 0.24 0.25 0.25 0.24 0.24 0.23 0.23 0.20 0.21 0.21 0.21 0.18 0.12 0.13 0.11 0.09 0.14 0.15 0.08 0.10 0.11 0.13 0.12 0.13 0.12 0.12 0.13 0.13 0.12 0.16 0.18 0.14 0.17 0.19 0.22 0.24 0.22 0.21 0.16 0.12 0.14 0.11 0.11 0.08 0.08 0.08 0.08 0.07 0.08 0.12 0.10 0.16 0.19 0.19 0.20 0.20 0.20 0.15 0.17 0.13 0.12 0.14 0.11 0.10 0.10 0.09 0.07 0.12 0.18 0.21 0.23 0.23 0.23 0.25 0.24 0.20 0.28 0.26 0.26 0.23 0.21 0.21
0.20 0.21 0.22 0.23 0.24 0.25 0.25 0.25 0.25 0.25 0.24 0.23 0.20 0.20 0.22 0.26 0.25 0.18 0.13 0.11 0.10 0.08 0.11 0.16 0.17 0.15 0.13 0.13 0.14 0.12 0.11 0.12 0.12 0.13 0.12 0.14 0.15 0.17 0.23 0.24 0.23 0.22 0.19 0.16 0.14 0.12 0.11 0.10 0.09 0.09 0.08 0.09 0.11 0.11 0.09 0.11 0.11 0.17 0.19 0.19 0.19 0.20 0.20 0.18 0.14 0.12 0.12 0.11 0.09 0.09 0.08 0.10 0.18 0.19 0.20 0.22 0.24 0.24 0.25 0.20 0.16 0.23 0.22 0.23 0.22 0.21 0.20
0.20 0.21 0.22 0.23 0.23 0.24 0.24 0.24 0.25 0.25 0.24 0.22 0.18 0.18 0.20 0.28 0.22 0.16 0.13 0.12 0.11 0.10 0.18 0.19 0.20 0.19 0.16 0.14 0.15 0.13 0.14 0.11 0.12 0.09 0.10 0.12 0.13 0.15 0.20 0.22 0.22 0.20 0.16 0.13 0.12 0.12 0.10 0.11 0.12 0.11 0.11 0.13 0.11 0.10 0.12 0.12 0.10 0.10 0.14 0.17 0.16 0.15 0.16 0.16 0.13 0.12 0.12 0.12 0.11 0.09 0.12 0.13 0.18 0.21 0.23 0.24 0.23 0.24 0.20 0.12 0.12 0.19 0.22 0.23 0.21 0.19 0.18
0.19 0.20 0.21 0.22 0.22 0.22 0.22 0.23 0.24 0.25 0.26 0.25 0.19 0.18 0.21 0.28 0.29 0.23 0.14 0.12 0.11 0.13 0.18 0.22 0.19 0.15 0.13 0.14 0.13 0.16 0.19 0.17 0.16 0.18 0.12 0.15 0.14 0.13 0.17 0.16 0.12 0.19 0.20 0.11 0.12 0.12 0.11 0.11 0.10 0.10 0.10 0.14 0.14 0.14 0.10 0.12 0.10 0.10 0.11 0.11 0.11 0.12 0.13 0.15 0.11 0.12 0.12 0.13 0.12 0.13 0.15 0.21 0.23 0.23 0.23 0.24 0.24 0.21 0.13 0.10 0.15 0.21 0.21 0.20 0.19 0.18 0.17
0.19 0.19 0.19 0.20 0.20 0.20 0.21 0.22 0.23 0.23 0.23 0.25 0.23 0.18 0.20 0.26 0.26 0.21 0.15 0.14 0.12 0.11 0.20 0.26 0.27 0.21 0.23 0.25 0.20 0.19 0.18 0.17 0.15 0.10 0.10 0.10 0.11 0.17 0.21 0.17 0.18 0.11 0.15 0.12 0.14 0.12 0.12 0.11 0.15 0.14 0.12 0.12 0.14 0.11 0.14 0.11 0.10 0.12 0.13 0.11 0.11 0.12 0.13 0.13 0.15 0.13 0.12 0.13 0.12 0.12 0.16 0.22 0.23 0.22 0.23 0.24 0.20 0.13 0.11 0.18 0.21 0.20 0.18 0.18 0.17 0.16 0.16
0.19 0.19 0.19 0.18 0.18 0.19 0.20 0.21 0.22 0.23 0.24 0.24 0.19 0.17 0.23 0.26 0.25 0.23 0.14 0.13 0.17 0.16 0.22 0.24 0.25 0.19 0.24 0.20 0.16 0.15 0.16 0.15 0.16 0.12 0.10 0.09 0.15 0.18 0.16 0.09 0.16 0.17 0.13 0.15 0.11 0.15 0.13 0.12 0.13 0.15 0.13 0.13 0.13 0.16 0.12 0.12 0.14 0.13 0.12 0.14 0.12 0.13 0.12 0.11 0.12 0.15 0.15 0.14 0.12 0.12 0.10 0.19 0.23 0.23 0.22 0.23 0.16 0.16 0.19 0.19 0.19 0.18 0.16 0.16 0.16 0.15 0.14
0.19 0.19 0.19 0.19 0.18 0.18 0.19 0.20 0.22 0.23 0.24 0.25 0.23 0.18 0.18 0.26 0.26 0.23 0.21 0.17 0.15 0.14 0.19 0.30 0.28 0.25 0.25 0.22 0.23 0.22 0.16 0.12 0.13 0.12 0.15 0.15 0.18 0.15 0.08 0.09 0.13 0.15 0.12 0.14 0.11 0.13 0.15 0.13 0.14 0.14 0.15 0.15 0.15 0.14 0.11 0.12 0.11 0.15 0.15 0.14 0.14 0.19 0.12 0.13 0.14 0.19 0.13 0.12 0.11 0.13 0.18 0.22 0.24 0.22 0.17 0.20 0.20 0.20 0.19 0.17 0.15 0.15 0.15 0.15 0.14 0.14 0.16
0.19 0.19 0.19 0.19 0.18 0.18 0.18 0.20 0.22 0.24 0.25 0.25 0.24 0.20 0.18 0.26 0.29 0.29 0.28 0.23 0.17 0.16 0.22 0.30 0.33 0.29 0.31 0.31 0.29 0.28 0.25 0.22 0.23 0.24 0.16 0.14 0.19 0.16 0.15 0.18 0.17 0.17 0.18 0.19 0.16 0.15 0.17 0.17 0.19 0.15 0.13 0.14 0.17 0.12 0.15 0.12 0.09 0.12 0.17 0.17 0.11 0.20 0.17 0.19 0.15 0.20 0.17 0.15 0.17 0.22 0.23 0.23 0.24 0.23 0.22 0.21 0.20 0.18 0.17 0.15 0.14 0.13 0.13 0.14 0.14 0.14 0.15
0.19 0.20 0.19 0.19 0.19 0.19 0.19 0.20 0.22 0.24 0.25 0.27 0.24 0.21 0.20 0.24 0.26 0.31 0.27 0.19 0.27 0.30 0.34 0.32 0.34 0.32 0.33 0.32 0.34 0.34 0.32 0.33 0.30 0.28 0.24 0.16 0.16 0.18 0.17 0.17 0.16 0.22 0.22 0.24 0.18 0.18 0.19 0.20 0.16 0.18 0.16 0.16 0.14 0.13 0.13 0.13 0.11 0.13 0.12 0.19 0.18 0.23 0.21 0.22 0.19 0.17 0.19 0.21 0.23 0.22 0.20 0.20 0.21 0.21 0.21 0.19 0.17 0.16 0.14 0.13 0.12 0.13 0.14 0.15 0.15 0.16 0.16
0.20 0.20 0.20 0.19 0.18 0.19 0.20 0.22 0.24 0.25 0.26 0.27 0.27 0.23 0.24 0.27 0.29 0.29 0.25 0.24 0.21 0.20 0.27 0.31 0.27 0.19 0.20 0.20 0.27 0.32 0.31 0.28 0.29 0.30 0.32 0.27 0.14 0.13 0.23 0.23 0.24 0.23 0.23 0.26 0.28 0.22 0.22 0.21 0.19 0.20 0.14 0.16 0.17 0.13 0.12 0.10 0.12 0.16 0.14 0.14 0.16 0.20 0.20 0.17 0.15 0.17 0.15 0.12 0.19 0.19 0.19 0.20 0.20 0.20 0.19 0.18 0.16 0.14 0.13 0.13 0.13 0.14 0.14 0.15 0.15 0.17 0.17
0.20 0.21 0.21 0.21 0.19 0.19 0.20 0.23 0.26 0.27 0.28 0.27 0.27 0.30 0.29 0.26 0.29 0.29 0.20 0.14 0.17 0.16 0.14 0.20 0.23 0.28 0.31 0.34 0.36 0.31 0.29 0.31 0.32 0.30 0.30 0.29 0.24 0.17 0.16 0.23 0.27 0.22 0.21 0.26 0.30 0.27 0.26 0.19 0.18 0.17 0.13 0.18 0.19 0.12 0.17 0.14 0.12 0.19 0.13 0.16 0.16 0.14 0.20 0.17 0.17 0.15 0.14 0.15 0.19 0.20 0.19 0.18 0.19 0.18 0.15 0.13 0.12 0.12 0.12 0.13 0.14 0.14 0.14 0.14 0.15 0.16 0.17
0.20 0.21 0.21 0.22 0.21 0.20 0.21 0.25 0.27 0.28 0.28 0.29 0.27 0.24 0.24 0.26 0.31 0.34 0.28 0.24 0.24 0.20 0.14 0.14 0.20 0.34 0.34 0.31 0.26 0.28 0.33 0.31 0.29 0.29 0.29 0.29 0.30 0.30 0.27 0.28 0.27 0.32 0.30 0.30 0.29 0.24 0.22 0.21 0.20 0.20 0.16 0.15 0.22 0.14 0.13 0.17 0.17 0.21 0.17 0.17 0.20 0.20 0.22 0.16 0.17 0.15 0.17 0.18 0.18 0.19 0.18 0.17 0.16 0.15 0.13 0.12 0.12 0.12 0.13 0.14 0.14 0.14 0.14 0.14 0.15 0.16 0.17
0.21 0.20 0.21 0.22 0.23 0.23 0.24 0.27 0.29 0.31 0.31 0.30 0.30 0.30 0.29 0.31 0.34 0.28 0.23 0.23 0.20 0.15 0.18 0.16 0.23 0.29 0.33 0.26 0.30 0.34 0.32 0.30 0.28 0.28 0.28 0.29 0.30 0.32 0.30 0.27 0.25 0.27 0.28 0.27 0.29 0.25 0.24 0.21 0.20 0.16 0.18 0.17 0.21 0.18 0.19 0.17 0.17 0.16 0.16 0.20 0.22 0.19 0.16 0.19 0.17 0.14 0.14 0.15 0.16 0.17 0.13 0.12 0.12 0.11 0.12 0.12 0.13 0.13 0.14 0.15 0.14 0.13 0.13 0.14 0.15 0.15 0.17
0.21 0.21 0.21 0.22 0.23 0.25 0.27 0.29 0.31 0.32 0.32 0.33 0.32 0.32 0.32 0.30 0.33 0.36 0.36 0.32 0.19 0.14 0.15 0.18 0.21 0.26 0.36 0.27 0.32 0.31 0.31 0.29 0.28 0.26 0.27 0.28 0.30 0.30 0.28 0.27 0.28 0.26 0.26 0.24 0.20 0.20 0.20 0.17 0.15 0.20 0.21 0.22 0.18 0.15 0.20 0.20 0.22 0.19 0.18 0.19 0.20 0.18 0.18 0.18 0.15 0.15 0.14 0.17 0.17 0.16 0.15 0.12 0.11 0.12 0.13 0.13 0.14 0.14 0.14 0.14 0.13 0.13 0.14 0.15 0.15 0.16 0.16
0.22 0.21 0.21 0.22 0.24 0.26 0.29 0.32 0.33 0.34 0.36 0.35 0.33 0.31 0.30 0.34 0.37 0.37 0.37 0.38 0.34 0.24 0.23 0.24 0.29 0.26 0.19 0.22 0.34 0.28 0.30 0.28 0.27 0.27 0.27 0.27 0.28 0.28 0.27 0.28 0.27 0.28 0.27 0.26 0.24 0.23 0.21 0.19 0.22 0.18 0.17 0.23 0.19 0.15 0.17 0.13 0.14 0.14 0.17 0.20 0.20 0.20 0.21 0.19 0.18 0.18 0.18 0.18 0.16 0.15 0.12 0.11 0.12 0.13 0.14 0.13 0.14 0.14 0.14 0.14 0.15 0.14 0.15 0.16 0.17 0.17 0.18
0.23 0.22 0.22 0.23 0.25 0.28 0.30 0.33 0.34 0.35 0.36 0.36 0.30 0.23 0.21 0.25 0.35 0.35 0.38 0.37 0.35 0.28 0.19 0.18 0.17 0.20 0.31 0.30 0.24 0.26 0.26 0.27 0.27 0.28 0.27 0.27 0.27 0.27 0.29 0.28 0.27 0.30 0.27 0.24 0.22 0.18 0.20 0.20 0.20 0.23 0.25 0.28 0.19 0.18 0.14 0.15 0.15 0.17 0.21 0.20 0.21 0.20 0.20 0.19 0.19 0.17 0.16 0.16 0.14 0.13 0.13 0.13 0.14 0.14 0.13 0.13 0.14 0.15 0.15 0.15 0.15 0.16 0.16 0.18 0.18 0.19 0.20
0.23 0.24 0.24 0.25 0.28 0.30 0.32 0.33 0.34 0.35 0.36 0.34 0.30 0.20 0.19 0.18 0.25 0.39 0.38 0.39 0.39 0.29 0.23 0.22 0.19 0.26 0.25 0.27 0.26 0.23 0.23 0.24 0.26 0.26 0.27 0.29 0.29 0.29 0.31 0.31 0.30 0.29 0.22 0.24 0.23 0.21 0.22 0.17 0.18 0.20 0.25 0.26 0.21 0.18 0.16 0.16 0.14 0.16 0.18 0.18 0.19 0.19 0.18 0.18 0.18 0.18 0.15 0.13 0.13 0.14 0.13 0.12 0.13 0.13 0.13 0.13 0.14 0.15 0.15 0.16 0.16 0.17 0.18 0.19 0.20 0.20 0.21
0.23 0.24 0.25 0.27 0.29 0.32 0.34 0.35 0.35 0.34 0.32 0.29 0.26 0.24 0.24 0.26 0.33 0.40 0.41 0.39 0.38 0.28 0.20 0.18 0.18 0.18 0.18 0.22 0.24 0.28 0.24 0.26 0.28 0.27 0.28 0.31 0.27 0.30 0.29 0.29 0.25 0.30 0.26 0.22 0.23 0.21 0.19 0.20 0.19 0.20 0.20 0.24 0.23 0.19 0.18 0.16 0.14 0.14 0.17 0.18 0.19 0.18 0.18 0.17 0.16 0.14 0.12 0.13 0.13 0.12 0.12 0.12 0.13 0.13 0.12 0.13 0.14 0.15 0.16 0.16 0.18 0.19 0.20 0.20 0.21 0.22 0.23
0.23 0.24 0.26 0.27 0.30 0.33 0.35 0.36 0.37 0.35 0.34 0.39 0.43 0.43 0.43 0.43 0.42 0.42 0.41 0.38 0.32 0.25 0.25 0.18 0.16 0.18 0.18 0.17 0.25 0.26 0.26 0.23 0.24 0.25 0.23 0.32 0.26 0.29 0.24 0.29 0.28 0.27 0.33 0.24 0.20 0.16 0.21 0.20 0.21 0.19 0.22 0.27 0.21 0.19 0.17 0.16 0.16 0.18 0.19 0.18 0.18 0.18 0.17 0.16 0.14 0.12 0.12 0.12 0.13 0.12 0.11 0.13 0.14 0.14 0.14 0.14 0.15 0.16 0.17 0.18 0.20 0.21 0.21 0.21 0.21 0.22 0.23
0.23 0.24 0.26 0.28 0.31 0.34 0.35 0.37 0.39 0.40 0.41 0.35 0.29 0.31 0.38 0.42 0.41 0.41 0.43 0.39 0.27 0.26 0.24 0.18 0.15 0.15 0.16 0.23 0.18 0.23 0.27 0.21 0.22 0.25 0.21 0.29 0.29 0.27 0.23 0.24 0.26 0.21 0.28 0.19 0.21 0.21 0.22 0.22 0.19 0.20 0.24 0.22 0.24 0.19 0.15 0.16 0.18 0.18 0.18 0.19 0.18 0.17 0.15 0.13 0.11 0.11 0.11 0.12 0.13 0.13 0.13 0.15 0.15 0.15 0.13 0.13 0.14 0.16 0.19 0.20 0.21 0.21 0.21 0.21 0.22 0.23 0.23
0.24 0.24 0.26 0.28 0.30 0.33 0.34 0.35 0.32 0.31 0.28 0.32 0.33 0.37 0.40 0.39 0.39 0.40 0.38 0.33 0.22 0.20 0.20 0.21 0.20 0.16 0.16 0.17 0.16 0.20 0.28 0.24 0.22 0.25 0.22 0.24 0.30 0.24 0.24 0.20 0.22 0.19 0.19 0.27 0.20 0.19 0.18 0.20 0.22 0.17 0.15 0.21 0.18 0.14 0.14 0.15 0.17 0.18 0.18 0.17 0.17 0.15 0.12 0.11 0.11 0.11 0.11 0.12 0.13 0.13 0.14 0.14 0.14 0.13 0.12 0.13 0.15 0.17 0.19 0.20 0.21 0.22 0.21 0.21 0.22 0.23 0.24
0.23 0.24 0.26 0.27 0.29 0.32 0.31 0.29 0.31 0.29 0.28 0.29 0.31 0.38 0.40 0.41 0.40 0.38 0.36 0.33 0.27 0.20 0.19 0.19 0.20 0.17 0.18 0.15 0.15 0.20 0.28 0.24 0.27 0.25 0.25 0.26 0.23 0.28 0.24 0.22 0.16 0.22 0.25 0.20 0.15 0.20 0.18 0.22 0.19 0.13 0.20 0.15 0.13 0.14 0.16 0.18 0.18 0.17 0.17 0.16 0.14 0.12 0.12 0.12 0.11 0.11 0.12 0.13 0.13 0.13 0.13 0.14 0.13 0.14 0.14 0.15 0.17 0.19 0.20 0.21 0.21 0.22 0.22 0.22 0.22 0.23 0.24
0.23 0.24 0.26 0.28 0.28 0.23 0.21 0.23 0.32 0.32 0.30 0.36 0.39 0.41 0.41 0.41 0.41 0.37 0.32 0.29 0.30 0.29 0.21 0.20 0.19 0.19 0.20 0.19 0.23 0.25 0.26 0.20 0.26 0.22 0.23 0.22 0.20 0.23 0.22 0.18 0.16 0.19 0.17 0.16 0.18 0.15 0.18 0.24 0.17 0.14 0.15 0.13 0.15 0.19 0.19 0.19 0.18 0.17 0.16 0.14 0.12 0.13 0.12 0.12 0.12 0.13 0.13 0.12 0.12 0.12 0.13 0.13 0.13 0.14 0.15 0.16 0.18 0.20 0.20 0.20 0.22 0.22 0.22 0.22 0.23 0.23 0.24
0.26 0.27 0.23 0.20 0.19 0.17 0.18 0.21 0.26 0.35 0.41 0.39 0.41 0.33 0.29 0.31 0.25 0.26 0.27 0.25 0.28 0.28 0.25 0.25 0.20 0.23 0.27 0.22 0.18 0.25 0.27 0.23 0.27 0.21 0.21 0.25 0.21 0.20 0.22 0.18 0.19 0.17 0.11 0.12 0.16 0.21 0.18 0.17 0.15 0.14 0.15 0.19 0.21 0.20 0.19 0.18 0.18 0.17 0.13 0.12 0.13 0.13 0.13 0.14 0.13 0.13 0.12 0.12 0.12 0.13 0.13 0.13 0.13 0.15 0.16 0.17 0.19 0.20 0.21 0.22 0.23 0.23 0.24 0.24 0.24 0.24 0.24
0.24 0.21 0.19 0.20 0.18 0.17 0.17 0.22 0.37 0.40 0.38 0.39 0.36 0.29 0.23 0.26 0.24 0.21 0.23 0.26 0.26 0.22 0.26 0.23 0.20 0.25 0.23 0.21 0.22 0.30 0.27 0.24 0.22 0.22 0.18 0.23 0.21 0.16 0.20 0.14 0.18 0.18 0.13 0.12 0.16 0.21 0.12 0.12 0.14 0.15 0.14 0.19 0.19 0.17 0.18 0.18 0.15 0.13 0.12 0.13 0.13 0.14 0.14 0.14 0.14 0.14 0.13 0.13 0.14 0.14 0.15 0.14 0.15 0.17 0.19 0.19 0.20 0.21 0.22 0.22 0.23 0.23 0.24 0.24 0.24 0.24 0.24
0.18 0.16 0.17 0.17 0.17 0.19 0.28 0.35 0.37 0.35 0.33 0.25 0.26 0.24 0.20 0.24 0.20 0.19 0.26 0.21 0.20 0.24 0.25 0.20 0.25 0.25 0.25 0.22 0.22 0.22 0.32 0.25 0.20 0.20 0.21 0.21 0.29 0.17 0.20 0.19 0.19 0.16 0.11 0.11 0.14 0.19 0.12 0.09 0.12 0.13 0.13 0.16 0.15 0.17 0.16 0.14 0.12 0.12 0.13 0.14 0.14 0.14 0.15 0.14 0.14 0.15 0.15 0.14 0.15 0.15 0.15 0.15 0.18 0.19 0.20 0.20 0.21 0.21 0.21 0.22 0.22 0.23 0.24 0.24 0.25 0.24 0.24
0.19 0.19 0.18 0.17 0.20 0.26 0.27 0.31 0.34 0.32 0.25 0.22 0.22 0.21 0.21 0.19 0.24 0.24 0.22 0.19 0.19 0.20 0.28 0.24 0.25 0.22 0.26 0.27 0.27 0.23 0.29 0.32 0.29 0.29 0.26 0.19 0.27 0.25 0.18 0.14 0.21 0.14 0.12 0.11 0.16 0.16 0.13 0.11 0.12 0.12 0.13 0.15 0.15 0.15 0.14 0.12 0.12 0.13 0.14 0.14 0.15 0.15 0.15 0.14 0.14 0.14 0.15 0.14 0.14 0.14 0.14 0.16 0.18 0.20 0.21 0.22 0.22 0.22 0.22 0.22 0.23 0.23 0.24 0.24 0.24 0.24 0.24
0.21 0.21 0.23 0.28 0.29 0.29 0.28 0.26 0.25 0.23 0.23 0.23 0.19 0.18 0.20 0.20 0.23 0.23 0.23 0.18 0.19 0.21 0.24 0.25 0.21 0.22 0.23 0.26 0.26 0.27 0.27 0.35 0.30 0.28 0.23 0.18 0.24 0.19 0.16 0.18 0.19 0.12 0.10 0.15 0.17 0.14 0.13 0.10 0.11 0.12 0.15 0.15 0.15 0.14 0.12 0.12 0.13 0.14 0.14 0.15 0.15 0.14 0.14 0.14 0.14 0.14 0.15 0.14 0.14 0.14 0.15 0.16 0.18 0.20 0.21 0.22 0.22 0.22 0.22 0.22 0.23 0.23 0.24 0.25 0.24 0.24 0.24
0.31 0.29 0.26 0.22 0.23 0.20 0.23 0.18 0.21 0.22 0.17 0.18 0.18 0.17 0.19 0.18 0.20 0.19 0.20 0.26 0.28 0.24 0.24 0.31 0.28 0.29 0.31 0.32 0.27 0.31 0.28 0.33 0.27 0.24 0.21 0.18 0.23 0.22 0.16 0.15 0.14 0.10 0.12 0.17 0.14 0.11 0.10 0.10 0.10 0.13 0.15 0.14 0.14 0.12 0.13 0.13 0.14 0.14 0.14 0.15 0.15 0.15 0.15 0.15 0.15 0.14 0.14 0.15 0.14 0.14 0.15 0.17 0.19 0.20 0.22 0.22 0.22 0.21 0.22 0.22 0.23 0.24 0.24 0.24 0.24 0.24 0.25
0.26 0.26 0.20 0.20 0.18 0.19 0.19 0.14 0.20 0.19 0.18 0.19 0.18 0.16 0.18 0.17 0.20 0.21 0.19 0.21 0.24 0.22 0.26 0.23 0.24 0.24 0.22 0.28 0.26 0.27 0.29 0.29 0.29 0.23 0.23 0.23 0.19 0.16 0.15 0.12 0.12 0.15 0.19 0.13 0.12 0.10 0.10 0.13 0.14 0.14 0.14 0.13 0.13 0.13 0.13 0.14 0.14 0.14 0.14 0.14 0.15 0.15 0.15 0.15 0.15 0.14 0.14 0.15 0.15 0.15 0.16 0.17 0.19 0.20 0.21 0.21 0.22 0.21 0.21 0.22 0.23 0.24 0.24 0.24 0.24 0.23 0.23
0.19 0.18 0.18 0.16 0.16 0.17 0.16 0.14 0.19 0.17 0.15 0.18 0.20 0.19 0.19 0.18 0.20 0.21 0.20 0.26 0.26 0.23 0.27 0.27 0.27 0.26 0.24 0.28 0.29 0.31 0.28 0.22 0.27 0.21 0.17 0.20 0.16 0.17 0.14 0.12 0.16 0.16 0.13 0.10 0.11 0.12 0.11 0.11 0.13 0.13 0.13 0.12 0.12 0.13 0.14 0.14 0.15 0.15 0.15 0.14 0.14 0.15 0.15 0.15 0.15 0.15 0.14 0.15 0.15 0.15 0.16 0.18 0.19 0.19 0.20 0.20 0.21 0.22 0.22 0.22 0.23 0.23 0.24 0.23 0.22 0.21 0.22
0.17 0.16 0.16 0.14 0.13 0.16 0.16 0.14 0.16 0.16 0.20 0.22 0.20 0.21 0.22 0.24 0.22 0.22 0.28 0.29 0.26 0.26 0.26 0.27 0.27 0.28 0.25 0.29 0.25 0.23 0.26 0.25 0.20 0.20 0.21 0.19 0.15 0.13 0.17 0.19 0.18 0.13 0.11 0.11 0.09 0.08 0.10 0.12 0.13 0.13 0.13 0.13 0.13 0.14 0.14 0.15 0.15 0.16 0.15 0.14 0.14 0.15 0.15 0.15 0.15 0.15 0.15 0.15 0.15 0.16 0.17 0.19 0.19 0.19 0.19 0.20 0.21 0.21 0.22 0.23 0.24 0.24 0.24 0.22 0.21 0.21 0.22
0.18 0.19 0.17 0.16 0.14 0.16 0.19 0.15 0.17 0.19 0.22 0.23 0.24 0.26 0.24 0.25 0.26 0.27 0.29 0.30 0.27 0.29 0.29 0.30 0.30 0.29 0.26 0.26 0.25 0.24 0.26 0.24 0.19 0.20 0.21 0.15 0.14 0.15 0.19 0.14 0.11 0.11 0.09 0.08 0.09 0.10 0.11 0.13 0.14 0.14 0.14 0.14 0.14 0.14 0.15 0.15 0.15 0.16 0.15 0.15 0.15 0.15 0.15 0.15 0.15 0.15 0.15 0.15 0.15 0.16 0.17 0.19 0.19 0.19 0.19 0.18 0.19 0.21 0.22 0.23 0.24 0.25 0.23 0.22 0.22 0.22 0.23
0.15 0.19 0.18 0.14 0.14 0.16 0.15 0.18 0.23 0.24 0.26 0.25 0.26 0.27 0.27 0.28 0.27 0.26 0.30 0.32 0.31 0.31 0.29 0.29 0.27 0.27 0.25 0.31 0.28 0.22 0.23 0.23 0.19 0.19 0.20 0.16 0.17 0.15 0.13 0.12 0.11 0.12 0.12 0.11 0.11 0.13 0.13 0.14 0.14 0.14 0.15 0.15 0.15 0.14 0.15 0.15 0.15 0.16 0.15 0.15 0.15 0.15 0.15 0.15 0.15 0.15 0.15 0.15 0.15 0.16 0.18 0.19 0.19 0.18 0.18 0.18 0.19 0.21 0.22 0.24 0.24 0.23 0.23 0.22 0.22 0.22 0.22
0.19 0.18 0.16 0.16 0.18 0.19 0.19 0.22 0.22 0.20 0.23 0.25 0.26 0.28 0.28 0.27 0.27 0.29 0.31 0.33 0.31 0.30 0.31 0.30 0.28 0.27 0.23 0.26 0.23 0.21 0.19 0.22 0.16 0.15 0.18 0.16 0.13 0.11 0.11 0.10 0.10 0.09 0.12 0.14 0.13 0.14 0.15 0.15 0.16 0.15 0.15 0.15 0.15 0.15 0.15 0.16 0.16 0.16 0.15 0.15 0.16 0.16 0.15 0.15 0.15 0.15 0.15 0.15 0.16 0.17 0.19 0.19 0.19 0.18 0.18 0.18 0.18 0.19 0.22 0.24 0.23 0.22 0.22 0.22 0.21 0.22 0.22
0.17 0.18 0.20 0.19 0.19 0.20 0.22 0.23 0.22 0.20 0.23 0.24 0.25 0.26 0.28 0.28 0.29 0.31 0.34 0.31 0.32 0.32 0.33 0.32 0.33 0.25 0.24 0.24 0.19 0.20 0.19 0.20 0.18 0.18 0.15 0.13 0.13 0.14 0.13 0.10 0.11 0.10 0.11 0.14 0.15 0.16 0.16 0.16 0.16 0.15 0.15 0.15 0.15 0.15 0.16 0.16 0.16 0.16 0.15 0.16 0.16 0.16 0.15 0.15 0.15 0.15 0.16 0.16 0.16 0.17 0.18 0.18 0.17 0.17 0.18 0.18 0.19 0.20 0.22 0.22 0.22 0.22 0.22 0.22 0.21 0.22 0.21
0.21 0.19 0.19 0.23 0.19 0.18 0.20 0.18 0.19 0.19 0.22 0.23 0.25 0.26 0.28 0.29 0.30 0.31 0.35 0.33 0.32 0.31 0.28 0.25 0.25 0.24 0.22 0.21 0.20 0.17 0.17 0.21 0.18 0.16 0.15 0.13 0.15 0.14 0.12 0.11 0.11 0.13 0.15 0.17 0.17 0.17 0.17 0.17 0.16 0.15 0.15 0.15 0.15 0.16 0.16 0.16 0.16 0.15 0.15 0.16 0.16 0.16 0.16 0.15 0.15 0.15 0.15 0.16 0.16 0.17 0.17 0.17 0.17 0.18 0.19 0.19 0.19 0.19 0.19 0.20 0.21 0.21 0.21 0.21 0.21 0.21 0.21
0.17 0.16 0.17 0.21 0.23 0.23 0.22 0.23 0.24 0.23 0.23 0.25 0.27 0.30 0.31 0.30 0.34 0.33 0.36 0.34 0.31 0.27 0.25 0.27 0.25 0.22 0.21 0.18 0.19 0.21 0.22 0.20 0.17 0.16 0.14 0.15 0.16 0.13 0.13 0.13 0.14 0.16 0.17 0.16 0.16 0.17 0.17 0.17 0.16 0.15 0.15 0.15 0.15 0.16 0.16 0.16 0.16 0.15 0.15 0.16 0.16 0.16 0.15 0.15 0.15 0.15 0.15 0.15 0.16 0.17 0.17 0.17 0.18 0.18 0.18 0.18 0.18 0.17 0.17 0.17 0.19 0.20 0.20 0.20 0.21 0.21 0.21
Wind_Speed
11 11 10 10 9 9 8 8 8 8 9 9 10 10 11 11 10 10 12 12 11 13 12 12 12 12 11 11 11 12 12 12 14 14 15 15 15 16 16 17 17 17 17 18 18 18 18 18 19 19 19 19 19 19 20 20 20 20 21 22 23 22 22 24 26 27 26 27 26 24 23 24 26 26 26 27 27 26 24 24 27 29 30 28 25 27 34
12 11 11 11 10 10 9 9 9 10 10 10 11 12 12 12 12 13 13 12 11 12 11 11 11 11 11 12 13 13 13 14 14 15 16 16 16 16 17 17 18 18 17 18 18 19 18 19 19 19 19 19 19 19 20 20 19 20 21 22 24 23 23 25 27 28 29 30 29 29 28 27 27 29 28 28 28 27 27 28 27 28 30 29 25 29 36
13 12 11 11 11 11 11 11 11 11 11 11 11 11 11 12 12 14 15 14 13 12 10 10 11 11 12 13 13 14 14 15 15 15 16 16 16 16 17 18 18 18 18 18 19 19 18 18 19 19 19 19 18 19 20 20 20 21 22 23 24 24 24 24 24 24 26 28 29 30 31 31 30 31 32 31 29 29 30 29 27 28 30 29 28 32 39
14 14 13 12 12 12 12 12 11 11 11 10 11 10 10 10 11 12 14 15 14 13 12 12 12 11 12 13 14 14 14 15 15 15 16 17 17 17 18 18 18 19 19 19 19 19 18 18 18 19 19 19 19 19 20 20 21 22 23 24 24 25 25 25 23 22 25 27 29 30 30 31 32 34 36 35 31 30 30 29 28 30 32 32 34 37 41
17 16 15 14 13 13 12 11 10 10 11 10 10 11 10 10 10 10 11 12 13 14 14 13 13 12 12 13 14 14 15 15 16 16 16 17 17 17 18 18 18 18 19 18 18 18 19 18 18 19 19 19 20 21 20 21 22 22 23 24 24 26 27 27 25 26 28 30 32 31 30 31 33 35 38 37 33 31 31 31 33 33 32 35 38 39 41
18 17 16 15 14 12 11 11 10 10 10 10 10 11 11 10 10 10 10 10 11 13 13 14 14 14 14 14 14 15 16 16 16 17 17 18 18 17 18 19 19 18 18 18 18 19 20 19 19 19 20 21 22 22 21 21 22 23 24 25 25 26 28 28 27 29 31 32 32 32 31 32 33 35 37 36 35 35 35 35 37 34 32 36 39 41 42
18 18 17 16 15 13 12 11 11 10 10 10 10 11 11 10 10 11 11 11 10 11 12 13 15 15 15 15 15 15 16 16 16 16 17 18 18 18 18 19 20 19 18 18 19 20 20 21 21 20 21 22 22 23 22 22 23 24 25 26 26 26 28 29 30 31 33 33 32 33 32 33 35 37 35 34 36 38 38 37 36 34 34 37 40 41 41
19 18 18 17 16 15 14 12 12 11 11 11 12 11 10 10 10 10 12 12 12 12 13 14 14 15 16 15 16 16 15 15 16 16 17 17 18 18 18 19 20 19 18 18 19 19 18 20 21 20 22 23 22 23 23 24 25 26 25 26 27 27 29 30 31 34 35 33 33 34 33 35 37 37 34 36 39 40 38 36 35 35 36 39 40 40 39
18 18 18 17 17 16 15 14 13 12 11 12 12 11 11 10 10 11 11 12 14 13 14 14 14 15 16 15 15 15 15 15 15 16 16 16 17 18 18 19 19 19 19 18 19 19 19 19 20 21 21 22 22 23 23 24 26 27 27 27 28 28 30 31 32 35 37 36 36 37 37 38 36 34 36 40 40 38 37 36 36 38 39 40 40 40 41
18 18 18 18 17 17 16 16 15 13 12 12 12 11 11 12 11 12 12 12 14 14 14 15 14 14 15 15 15 15 15 15 16 16 17 17 18 18 18 19 19 20 20 20 20 21 21 21 23 22 22 23 23 24 24 24 25 27 27 28 28 28 30 32 32 34 37 39 38 40 40 37 33 34 39 42 38 38 39 38 38 40 40 40 41 41 43
18 18 18 18 18 18 17 17 17 15 13 13 12 12 12 12 12 13 13 13 14 14 14 15 15 14 14 15 15 16 16 16 17 17 17 18 18 19 19 19 19 19 20 21 22 23 24 23 23 23 23 24 24 24 25 25 25 25 26 28 29 30 30 32 32 32 37 40 40 41 38 34 33 37 40 39 37 40 42 40 40 41 40 40 41 42 45
17 18 18 18 18 18 18 18 18 17 15 14 13 13 13 12 12 13 13 13 14 14 14 13 14 14 14 15 15 15 16 17 17 17 17 18 19 20 19 20 20 20 21 23 24 24 24 24 23 23 24 24 24 24 25 26 26 26 26 27 30 31 31 32 32 32 36 39 38 37 36 35 37 39 39 39 40 42 43 41 41 43 43 43 44 45 47
17 17 18 18 18 18 18 18 18 18 17 15 14 14 14 13 13 13 13 13 14 14 13 13 13 14 14 15 15 16 16 17 17 17 17 18 19 20 20 20 20 22 23 24 25 25 24 25 25 25 25 26 26 25 25 26 26 27 27 27 29 31 31 32 33 33 35 37 35 34 38 40 41 40 40 43 44 45 46 44 42 44 44 44 46 48 50
17 17 17 18 18 18 18 18 18 18 18 16 15 15 15 14 14 13 13 13 13 13 12 13 14 15 15 15 15 16 17 17 17 18 18 18 19 20 20 21 21 23 24 25 25 25 25 26 27 27 28 28 28 28 28 28 27 27 28 28 29 31 32 33 34 33 33 35 35 37 41 42 41 41 43 45 46 46 46 45 43 43 44 46 50 53 55
16 17 17 17 18 18 18 18 18 18 18 17 16 16 16 16 15 14 13 12 12 13 13 13 14 14 15 15 16 16 17 17 18 18 18 19 19 20 21 22 23 24 25 25 25 25 26 27 28 29 30 30 30 30 29 30 29 29 30 30 29 31 32 33 34 34 34 36 37 38 39 38 39 42 45 47 48 49 47 45 44 45 49 53 55 57 59
16 17 17 17 18 18 18 18 19 18 18 17 17 16 17 17 16 15 14 12 11 12 13 13 13 14 14 15 16 16 16 17 18 18 19 20 21 22 22 23 23 25 26 26 25 25 26 27 27 28 29 29 29 30 31 32 32 32 32 32 31 33 33 33 34 35 36 36 36 36 36 37 41 45 48 50 53 53 51 48 47 49 56 59 58 60 62
15 16 17 17 18 18 18 19 19 19 18 18 17 17 18 18 16 15 14 13 13 13 13 13 13 14 14 15 16 17 17 17 18 18 19 20 21 23 24 24 24 25 26 26 26 26 27 27 28 29 29 28 29 30 31 32 33 34 34 34 34 34 35 34 34 36 37 36 37 38 37 37 42 47 50 54 56 55 51 48 49 54 59 60 61 62 63
15 16 17 17 17 18 19 19 19 19 19 18 17 17 18 18 17 15 14 13 13 13 14 14 14 14 15 15 16 17 17 18 19 19 20 21 21 23 25 25 25 26 26 26 26 27 28 28 28 29 29 30 30 30 31 32 34 35 35 35 36 36 35 34 35 38 38 37 38 40 38 38 43 49 53 58 58 54 48 47 52 59 61 61 62 63 63
15 16 16 17 18 18 19 19 20 20 20 19 17 17 19 19 17 15 14 14 13 13 14 15 14 15 15 15 16 17 18 19 19 19 20 22 23 24 24 24 25 26 27 27 27 27 28 28 29 29 29 31 31 30 31 32 32 34 36 36 37 37 37 36 36 38 39 38 40 42 39 40 48 54 56 58 55 49 47 51 57 61 62 63 63 63 63
14 15 16 17 17 18 19 20 20 21 20 20 18 17 18 19 19 16 15 14 13 13 14 15 15 15 16 16 17 18 19 20 20 20 20 21 24 25 24 24 26 27 27 27 28 28 28 29 30 29 29 30 31 31 33 33 32 33 35 35 36 36 37 38 38 38 40 41 41 41 40 44 53 56 54 53 52 50 52 56 59 61 63 63 63 62 61
14 14 15 16 17 18 19 20 21 21 21 20 19 18 18 19 19 18 16 14 13 13 14 15 15 16 17 17 18 18 19 20 20 21 21 22 24 24 23 24 26 27 27 27 28 28 28 29 29 29 29 30 31 31 33 35 35 34 33 34 36 37 37 39 39 39 41 42 41 41 43 48 54 55 53 53 55 57 59 60 61 62 63 63 61 60 58
13 14 15 16 17 18 19 20 21 21 21 20 20 18 18 18 19 19 17 16 15 14 14 14 15 16 17 18 18 19 20 20 21 21 22 23 24 24 23 24 26 26 26 27 28 28 29 29 29 30 30 31 31 32 32 33 35 36 36 35 36 37 38 39 39 40 41 41 41 44 48 51 55 56 56 59 62 63 63 64 64 64 63 61 59 57 56
12 14 15 16 17 18 19 20 21 21 21 21 20 19 17 17 18 18 17 16 16 15 15 15 16 17 18 18 19 20 21 21 22 22 22 23 23 24 24 25 26 27 27 27 27 27 28 29 29 30 30 30 31 32 33 33 34 36 38 37 36 38 41 41 40 42 44 43 45 50 54 57 60 60 60 62 65 66 66 66 65 63 61 59 56 55 54
12 13 14 16 17 17 18 19 21 21 21 21 20 19 17 17 18 18 17 16 16 16 16 17 17 18 18 19 19 20 22 23 23 23 23 23 24 24 24 25 27 27 27 28 28 28 29 29 29 29 30 30 30 32 33 34 35 36 39 39 38 41 45 43 43 46 48 47 49 54 58 61 63 63 63 65 67 67 66 65 63 62 60 57 55 53 52
11 12 14 15 16 17 17 19 21 21 22 21 20 19 18 19 19 19 18 17 17 16 16 18 18 18 18 19 20 21 23 24 24 24 23 24 24 24 25 27 27 28 28 28 28 28 28 29 29 29 30 30 31 32 33 34 36 37 39 40 41 43 45 45 46 49 49 49 53 57 61 64 64 65 66 68 69 69 67 65 62 61 59 57 54 52 50
10 12 13 15 16 16 17 18 20 21 21 21 21 19 19 20 21 20 19 18 18 17 17 18 18 18 19 20 21 22 23 24 25 24 24 24 24 25 26 27 28 28 28 29 28 28 27 28 29 29 30 30 32 32 33 35 37 38 38 40 41 43 45 46 48 50 51 52 56 61 63 64 66 67 68 69 69 69 67 64 61 59 57 55 53 51 49
10 12 13 14 15 16 16 17 19 19 20 21 21 20 20 21 22 21 20 19 19 19 19 18 18 19 19 20 21 22 23 24 25 25 24 25 26 26 27 28 28 29 29 28 28 28 27 28 29 29 30 31 33 33 34 35 36 37 39 41 43 45 46 47 49 51 52 55 59 62 63 64 67 69 70 69 68 67 65 62 60 58 56 54 53 51 50
10 12 13 14 15 16 16 17 18 19 19 20 20 20 20 21 22 22 22 21 20 19 18 17 18 19 19 20 21 22 23 25 26 25 25 26 27 27 28 28 28 29 28 28 28 28 27 28 29 29 31 32 34 35 36 36 37 38 40 43 45 45 47 48 50 51 54 57 61 63 63 65 68 70 69 68 67 64 62 60 58 57 55 53 51 52 52
10 12 13 14 15 16 17 18 18 19 19 20 20 20 20 22 23 23 23 22 20 19 18 18 19 19 20 20 21 22 24 26 26 25 26 27 28 28 28 29 28 28 27 27 27 27 27 28 29 30 32 33 34 35 36 37 38 39 41 45 46 46 47 50 51 53 56 60 64 66 66 66 68 69 69 67 64 61 59 58 56 54 53 52 51 51 52
10 11 13 15 16 16 18 19 19 19 20 20 20 20 20 22 23 24 24 22 21 20 19 19 20 20 20 20 21 23 26 27 26 26 27 28 28 29 29 29 28 28 28 28 27 27 28 29 30 31 33 34 34 35 37 38 38 39 43 47 48 49 50 52 53 56 59 63 65 67 67 67 68 68 68 66 63 60 58 56 54 53 53 52 51 51 52
10 11 13 14 15 16 18 19 20 20 20 21 21 21 21 21 23 25 24 23 21 21 20 20 20 20 20 21 22 24 27 27 26 27 29 28 28 29 29 28 28 28 27 27 27 28 29 29 31 32 34 34 35 35 37 39 40 42 46 50 51 52 54 55 56 59 62 65 66 67 67 68 68 68 67 65 63 61 58 55 54 54 53 53 52 52 52
10 12 13 14 15 16 18 19 20 21 21 22 22 21 21 22 24 25 24 23 22 21 20 21 21 21 21 22 22 25 28 28 27 28 29 28 28 29 29 28 28 28 27 27 28 28 29 30 32 34 35 35 36 37 38 39 41 44 48 51 53 55 57 58 60 63 65 67 67 67 67 68 68 68 67 65 62 59 56 55 55 54 53 53 53 52 51
11 12 13 14 15 16 17 18 19 20 20 21 22 22 23 24 25 24 23 22 22 22 21 21 21 21 22 22 23 26 29 28 27 29 30 28 28 29 29 28 28 28 28 28 28 29 31 32 33 35 35 36 37 37 38 40 42 45 49 52 54 56 59 61 63 65 67 67 68 67 67 68 68 68 67 64 60 57 55 54 54 54 53 52 52 51 51
11 12 13 14 15 17 17 18 19 19 20 21 22 23 25 26 26 25 23 22 22 22 22 22 22 22 23 23 23 26 29 29 28 30 30 28 28 29 29 28 28 28 28 29 29 30 32 33 34 35 36 37 38 38 40 43 45 48 50 53 55 58 61 64 66 67 68 69 69 68 68 69 69 68 66 62 59 56 55 54 54 54 53 52 51 51 50
12 13 14 14 15 17 17 18 19 20 21 22 22 23 25 26 26 26 24 23 23 23 23 23 22 22 24 25 24 27 30 29 29 30 29 28 29 29 28 28 28 28 28 29 30 31 33 34 35 36 37 38 39 39 41 45 48 50 53 55 58 61 63 66 68 69 69 70 71 71 70 69 68 67 64 61 58 56 55 54 54 53 52 51 51 51 49
13 14 14 15 16 17 18 19 20 21 21 22 22 23 25 25 25 25 25 25 24 23 22 23 23 23 25 25 25 28 30 30 29 30 30 29 29 29 28 28 28 29 30 30 31 32 34 35 36 37 38 38 39 40 42 46 49 52 55 57 60 62 64 65 67 69 71 71 72 72 72 70 68 65 62 59 56 55 54 54 54 53 53 52 52 51 49
13 14 15 16 17 18 19 20 21 21 21 22 23 23 24 24 23 24 25 25 25 24 23 23 23 25 26 26 27 29 30 29 30 30 30 29 29 29 29 29 29 30 31 31 31 34 36 36 36 37 38 38 39 42 45 48 51 53 56 59 61 63 64 65 67 69 71 72 72 72 72 71 69 66 63 59 57 55 55 54 53 53 53 53 52 50 49
14 15 16 16 17 18 19 20 21 21 22 23 23 23 23 24 24 24 25 25 25 25 25 24 25 26 27 27 28 29 29 29 30 30 29 29 29 29 29 29 30 31 31 31 32 35 36 36 36 37 38 39 40 44 48 51 52 55 58 60 62 64 65 66 68 69 70 71 71 71 71 70 69 66 63 60 57 55 54 53 52 52 53 52 51 51 50
15 15 16 17 17 18 19 20 21 21 22 22 22 22 23 24 24 25 25 25 25 26 26 26 26 27 28 28 29 29 29 29 29 29 29 29 29 29 30 30 31 31 31 31 33 36 37 36 37 38 39 40 43 46 50 53 55 57 60 62 63 65 66 67 68 68 68 69 70 70 69 67 66 64 61 59 57 55 53 53 53 53 53 52 52 52 51
15 16 16 17 18 18 19 20 21 21 21 22 22 22 23 24 25 25 25 26 26 26 27 27 28 29 29 29 29 29 29 30 29 29 29 29 29 29 30 30 31 32 31 32 34 36 36 36 38 38 39 41 45 48 52 55 57 60 62 63 65 66 67 68 68 69 69 69 70 70 68 66 64 62 59 57 56 55 54 53 54 54 54 53 53 52 51
16 16 17 17 18 18 19 20 21 21 21 22 22 23 24 24 25 25 26 26 26 27 28 28 29 30 30 29 29 29 30 30 29 28 29 29 29 30 30 30 31 31 31 33 35 36 36 37 38 39 40 43 47 51 55 58 59 61 63 64 66 67 68 69 70 70 70 71 71 70 69 67 64 61 58 56 55 54 54 54 55 55 54 53 53 52 51
16 17 17 17 18 19 19 20 21 21 21 22 22 23 24 25 25 26 26 26 27 28 29 29 30 31 31 30 29 29 29 30 29 29 28 29 30 30 30 30 31 31 32 34 36 36 36 38 39 39 42 46 51 54 57 59 60 62 63 65 66 68 69 70 71 71 71 71 70 70 69 67 64 60 57 56 55 54 54 55 55 55 53 52 52 51 50
16 17 17 18 18 19 20 20 21 21 21 22 23 24 25 26 26 26 27 27 28 29 30 30 31 31 30 30 30 29 28 29 29 29 28 29 30 30 30 31 31 32 33 35 36 36 37 38 39 41 46 50 53 56 58 59 61 63 64 65 67 68 69 70 71 71 72 71 70 70 69 67 63 60 57 56 56 56 56 56 55 54 53 52 51 50 51
17 17 18 18 19 20 20 20 21 21 22 23 23 24 25 27 27 27 28 29 29 30 30 31 31 30 30 30 30 29 28 28 29 29 28 29 30 30 30 31 32 33 34 35 35 36 37 38 40 44 49 53 55 57 59 60 62 63 65 66 68 69 70 71 71 72 72 71 71 70 69 67 64 60 57 56 56 56 57 56 55 54 52 51 50 51 52
17 18 18 18 19 20 20 20 21 22 22 23 24 24 25 26 27 27 28 29 29 30 31 31 30 30 30 30 29 28 28 29 29 28 29 30 30 30 30 32 32 33 34 35 36 38 39 40 44 48 52 54 57 58 60 61 62 64 65 67 69 69 70 71 72 71 71 71 71 70 69 66 63 60 57 56 56 55 55 55 55 53 52 51 52 52 52
17 18 18 18 19 20 20 20 22 23 23 24 25 25 25 26 27 28 29 29 30 30 31 31 30 30 30 29 28 27 28 29 28 28 29 29 30 30 31 32 33 34 35 36 38 39 41 43 47 51 53 56 58 59 60 62 63 64 65 67 68 69 70 71 72 71 71 71 71 70 68 66 63 60 58 56 55 55 54 54 53 52 52 52 53 52 52
17 18 18 18 19 20 21 21 22 23 24 24 25 25 26 27 28 28 29 29 29 30 31 31 30 29 28 28 28 28 28 28 28 28 29 29 30 31 32 32 32 34 35 37 39 40 43 46 50 53 55 57 59 60 61 62 63 64 66 67 68 70 71 71 72 71 71 71 71 69 68 66 63 61 58 57 55 55 54 53 52 52 53 53 52 51 51
18 18 19 19 19 21 22 22 22 23 24 25 25 26 27 28 28 29 29 29 29 30 30 30 29 28 28 28 27 27 28 28 28 28 29 30 30 32 32 33 34 35 36 37 39 42 45 49 52 54 55 57 59 60 61 62 63 65 66 68 69 70 71 71 72 71 71 71 70 69 67 65 63 61 58 57 56 54 53 52 53 53 53 53 52 51 51
18 18 19 19 20 21 22 22 23 24 25 26 26 27 27 28 28 29 29 29 29 30 30 29 28 28 28 28 27 27 28 28 28 29 30 30 31 31 32 33 35 37 37 38 41 44 48 50 53 54 56 57 59 60 61 63 64 65 67 68 69 70 71 71 72 71 71 70 69 68 67 65 63 60 58 57 55 54 52 53 53 54 53 53 52 51 50
18 19 19 20 21 22 22 23 23 24 26 26 27 27 28 28 28 29 29 29 30 30 29 29 28 28 27 27 28 27 28 28 28 29 30 30 31 31 33 34 35 37 39 41 44 47 49 51 53 55 56 58 59 60 62 63 65 66 67 68 69 69 70 71 71 71 70 69 69 69 67 65 63 60 58 56 55 54 52 52 53 53 53 53 52 50 48
19 19 20 21 21 22 22 23 24 25 26 27 27 28 28 28 28 28 29 29 30 30 29 28 28 28 28 28 27 27 28 28 28 29 30 30 31 32 33 35 36 39 41 44 46 48 50 51 53 54 57 58 60 61 62 64 65 67 68 69 69 69 70 71 71 70 69 69 69 69 67 65 62 59 57 56 55 53 52 52 53 53 53 53 51 48 47
19 20 21 21 22 22 23 24 25 26 26 27 27 28 28 28 28 28 29 29 29 29 28 28 27 27 27 28 28 28 28 29 29 29 30 31 31 32 34 36 39 41 44 46 48 49 50 51 53 55 57 59 60 62 63 65 66 68 69 69 69 69 70 70 70 70 70 69 69 68 66 65 62 60 57 56 54 52 51 52 53 54 54 52 50 48 47
Wind_Direction
62 66 67 68 69 67 65 62 58 56 55 53 52 49 46 47 46 34 28 32 43 46 36 23 25 28 24 22 22 20 17 13 8 6 5 2 359 359 357 355 354 351 349 348 347 346 345 344 346 345 343 343 341 342 344 344 344 346 345 344 345 344 343 340 336 336 336 333 337 341 338 336 334 332 331 328 326 324 318 313 315 317 315 314 312 308 312
59 63 66 67 68 68 67 67 65 63 63 61 58 57 55 53 49 39 31 33 40 41 34 27 26 23 22 23 19 16 15 12 8 5 3 0 359 359 354 353 353 349 349 349 346 347 348 347 347 347 345 345 346 346 346 346 347 347 345 344 345 342 340 340 338 338 338 338 339 339 336 336 333 330 331 328 325 326 321 316 317 316 312 311 310 307 310
58 61 65 68 70 71 72 72 71 68 64 60 58 58 55 49 45 38 35 37 40 37 35 37 31 24 24 22 16 13 11 9 7 4 1 359 359 357 353 351 351 349 351 351 349 350 352 349 350 352 349 348 349 347 346 347 346 346 344 343 343 340 338 339 339 337 335 334 334 332 331 332 331 330 330 328 325 323 319 318 316 313 311 310 307 305 308
60 63 68 71 72 73 74 73 70 64 58 53 52 51 46 41 37 32 32 36 40 37 35 38 32 24 23 18 12 12 9 4 3 3 1 359 357 356 354 353 353 354 357 357 353 353 355 354 355 355 351 349 350 348 347 346 344 344 343 341 341 341 337 336 334 331 329 327 325 326 327 326 326 326 326 325 324 321 319 318 314 311 312 310 306 306 309
63 66 69 70 70 70 70 68 64 58 53 51 49 45 41 38 33 28 27 30 33 32 28 28 25 19 18 15 9 9 7 2 2 1 359 358 357 356 358 0 1 360 1 2 358 356 358 358 357 355 351 348 348 347 346 345 343 342 341 339 340 341 337 333 331 327 325 325 324 325 326 323 322 322 322 323 324 323 321 316 312 313 313 309 308 310 310
64 64 65 65 65 64 64 62 57 53 47 43 44 39 35 36 33 31 32 29 26 25 22 24 25 19 16 14 10 9 8 5 2 359 358 0 2 2 3 5 6 3 3 5 1 357 358 358 355 353 351 349 348 347 345 344 343 341 339 337 338 339 334 332 331 328 325 325 324 324 324 323 323 322 320 321 324 324 320 315 313 313 309 306 309 312 311
63 62 61 61 60 59 58 56 51 47 42 39 45 43 38 42 39 31 32 32 27 23 19 22 25 19 14 13 11 10 10 6 2 2 4 5 6 9 8 3 2 1 2 5 2 358 358 355 351 351 350 348 347 346 344 344 343 341 338 336 337 337 333 332 332 329 327 326 325 324 325 325 325 323 322 323 324 322 319 317 317 314 309 307 310 312 312
61 60 59 57 56 55 53 51 48 46 43 42 45 43 39 42 40 35 35 31 24 21 17 19 21 14 11 13 10 9 11 8 6 9 13 10 7 11 9 2 358 359 0 3 360 355 355 351 346 348 349 346 345 344 342 342 341 340 339 336 336 335 333 333 334 331 329 329 328 328 327 326 324 323 324 326 325 323 323 322 322 320 316 315 315 314 314
60 58 57 55 54 52 49 48 46 43 44 44 45 44 43 45 43 42 38 24 16 17 15 16 18 12 10 12 11 11 13 13 13 13 14 13 10 9 6 1 359 360 360 359 354 350 350 345 340 341 342 342 342 342 342 343 341 339 338 337 337 336 333 334 336 331 329 331 332 330 328 327 326 326 328 328 327 327 327 326 327 325 322 321 321 319 317
57 56 54 52 52 51 48 46 45 44 46 49 48 45 43 42 38 34 31 21 14 15 13 14 17 13 11 14 15 15 14 13 15 14 11 11 10 7 4 2 1 360 357 353 350 347 345 341 338 338 337 336 336 335 336 339 339 337 337 336 336 336 334 333 334 330 327 331 332 330 330 331 331 332 332 331 330 330 328 327 327 327 324 324 324 321 320
55 54 52 51 50 49 48 47 46 46 47 48 47 43 36 35 32 26 25 21 13 13 15 15 16 15 14 16 17 17 15 13 13 13 9 7 7 5 3 1 359 356 351 349 348 345 343 342 341 340 338 335 334 333 332 333 333 333 336 336 336 336 335 332 331 328 326 329 331 331 332 333 330 332 334 333 331 331 329 328 327 326 325 324 321 319 319
54 53 51 50 49 48 47 47 46 46 47 44 43 41 32 28 27 22 23 21 13 13 19 16 14 16 17 17 16 15 13 11 10 9 6 3 2 2 0 359 356 352 349 347 345 343 343 344 343 342 341 338 336 335 334 333 332 331 332 334 335 336 335 331 330 327 326 330 333 333 331 330 328 330 334 333 330 329 327 326 326 326 325 323 321 319 319
52 51 50 49 48 48 47 47 45 44 43 40 38 36 30 26 26 24 26 25 14 14 21 18 14 17 16 15 15 12 9 7 5 5 4 1 358 357 355 354 351 348 347 346 344 344 343 343 343 343 342 341 340 339 336 333 333 333 332 332 334 335 334 332 331 329 328 330 332 329 326 327 330 331 332 331 330 329 326 324 325 326 325 324 323 321 320
51 50 50 48 47 47 45 44 43 41 40 38 36 33 28 25 24 22 23 24 16 12 20 20 13 14 14 12 11 8 5 4 2 0 360 358 355 352 351 350 348 346 346 345 344 345 344 344 344 343 342 343 343 341 338 337 337 337 334 332 334 336 335 333 331 330 330 328 326 324 324 327 332 332 332 332 331 328 326 323 322 324 325 324 323 321 320
51 50 50 48 46 44 42 41 40 37 36 34 32 31 28 24 23 21 22 28 23 14 16 16 9 8 10 9 7 5 1 359 358 355 354 353 351 349 349 348 347 346 346 345 344 345 345 345 345 343 342 343 342 339 339 340 340 340 337 335 335 335 334 334 332 331 331 328 326 327 327 328 331 331 330 330 328 325 324 321 319 322 325 324 323 321 320
51 50 48 46 44 42 40 38 35 33 31 29 27 26 25 22 21 21 22 25 23 13 10 9 5 4 6 4 3 3 359 355 354 352 350 349 348 347 347 347 346 345 346 345 344 345 346 345 344 342 341 341 339 337 338 339 338 340 340 339 338 336 334 335 333 330 330 329 327 327 327 327 330 330 329 329 327 324 323 320 318 323 325 324 323 321 320
49 48 46 44 41 39 37 34 32 29 27 25 23 22 21 19 18 20 19 19 20 13 5 2 1 1 2 360 357 357 355 352 351 350 347 345 344 344 345 345 345 344 345 345 344 345 346 344 343 342 339 339 340 337 337 338 337 337 339 340 339 337 335 335 332 329 329 328 325 326 326 327 329 329 329 329 327 325 326 323 321 324 325 324 322 321 319
47 45 42 40 38 35 33 31 28 26 24 23 22 21 19 15 14 16 16 14 15 10 1 360 2 2 1 358 353 352 351 349 349 347 343 342 343 343 342 343 344 343 344 345 345 345 345 343 342 342 338 338 341 338 337 338 336 336 337 337 337 337 335 334 332 330 330 329 326 326 327 326 328 330 330 330 328 328 329 325 322 323 323 322 321 320 319
44 41 38 36 34 32 30 27 25 23 20 18 18 17 15 13 11 13 13 11 12 8 0 359 2 1 358 356 353 351 349 349 348 346 344 343 342 341 341 342 343 343 344 345 345 344 344 342 341 342 339 338 340 339 337 337 336 336 337 337 336 336 335 335 333 331 331 330 328 327 326 328 331 330 329 331 332 331 328 323 321 322 321 321 321 320 320
40 37 34 32 30 29 27 24 22 20 18 17 15 15 15 13 11 11 9 9 13 12 3 359 1 359 356 355 354 351 349 348 347 345 344 341 340 342 344 343 343 343 344 345 345 343 343 341 340 342 340 338 339 339 337 337 337 337 336 337 337 336 335 335 334 333 332 332 331 330 328 330 333 332 330 333 334 329 324 322 322 321 321 321 321 321 321
36 34 31 29 28 26 24 22 20 18 16 15 13 14 14 12 11 12 11 8 9 8 1 357 358 358 356 355 354 351 350 348 345 344 343 340 340 345 345 341 342 344 344 344 344 342 342 341 340 341 340 338 339 338 336 337 337 337 337 337 337 337 336 335 334 335 334 333 332 332 329 329 332 332 330 330 329 326 324 323 322 322 322 322 322 322 323
32 30 28 26 25 24 22 20 18 16 15 13 11 11 13 11 10 11 10 8 8 6 1 357 357 357 355 354 352 351 350 348 345 345 344 342 342 345 344 342 342 343 343 344 343 341 341 341 340 340 340 339 339 338 337 337 336 337 339 339 338 339 337 333 332 333 333 330 328 329 327 327 329 329 327 327 326 326 326 324 323 323 324 324 324 324 324
30 27 25 23 21 21 20 18 16 15 14 12 10 10 12 10 7 6 6 7 8 7 1 356 354 353 352 351 351 350 350 348 346 345 345 343 343 343 343 343 343 342 342 343 342 340 341 340 340 340 340 339 339 338 338 338 336 337 339 339 338 338 337 334 332 332 330 329 329 329 328 328 328 328 327 327 327 327 326 325 325 325 325 325 325 325 325
27 25 22 19 17 17 17 16 15 13 12 11 10 9 10 9 5 3 3 2 1 359 355 351 349 348 347 348 349 349 348 348 346 344 344 344 344 343 342 342 342 342 341 341 340 341 341 340 340 341 340 338 339 339 337 337 336 337 337 337 336 337 337 336 334 333 332 331 332 331 330 330 329 329 328 328 328 328 328 327 326 326 326 326 325 325 325
25 21 18 15 14 14 14 13 12 11 10 9 8 7 6 5 1 359 359 357 354 353 350 347 345 345 345 345 346 346 346 346 345 344 344 343 344 343 341 341 341 341 339 339 340 341 341 340 341 341 339 338 340 340 337 337 337 338 338 336 335 336 337 336 334 334 333 331 331 331 330 330 330 330 329 329 329 329 328 328 327 327 326 326 325 325 325
22 18 15 12 10 10 11 10 9 9 9 8 7 5 4 3 1 358 357 356 353 352 350 345 342 343 344 343 344 344 345 345 345 345 345 344 343 342 341 341 341 340 339 340 341 341 340 341 341 341 340 339 340 340 338 337 338 339 339 337 335 335 336 335 334 334 333 332 333 333 332 331 331 331 330 330 330 329 328 328 328 327 326 326 325 325 325
16 13 11 9 7 6 6 6 5 5 6 6 6 5 3 2 1 359 356 353 349 347 347 344 341 340 342 342 343 344 345 345 345 345 345 345 343 342 341 340 341 341 341 341 342 342 342 342 341 340 339 339 339 339 339 339 340 340 339 337 337 337 338 337 336 336 336 335 335 334 332 331 331 331 331 331 330 329 328 328 328 327 327 326 326 326 325
11 9 7 5 4 3 2 1 360 359 0 2 3 4 3 2 1 359 355 352 349 347 346 346 343 342 342 343 343 344 344 344 345 345 345 345 344 342 341 341 341 342 342 342 342 343 343 342 341 340 339 340 340 340 340 340 341 341 339 338 339 340 340 340 338 337 336 335 334 333 332 330 330 331 331 331 331 330 329 328 328 328 327 327 326 326 326
4 3 2 1 1 1 359 357 355 353 353 353 353 354 356 358 358 357 354 352 351 350 350 348 345 342 341 342 342 343 344 344 345 345 344 344 343 342 341 341 341 342 342 342 342 342 341 340 340 340 340 340 340 340 340 341 341 340 339 340 340 340 339 339 337 335 334 333 333 333 332 330 330 331 331 331 331 330 329 328 328 328 327 327 326 326 326
358 357 357 357 358 358 357 355 353 350 349 349 347 347 348 351 353 353 352 350 348 348 347 346 344 341 340 341 341 342 343 344 344 344 343 343 342 342 342 342 342 342 343 343 342 342 341 341 341 340 340 341 341 340 341 342 341 340 340 340 339 338 338 338 337 335 334 334 333 333 332 331 331 331 331 331 331 331 329 329 329 328 328 327 326 326 326
351 350 351 353 355 356 355 355 354 352 350 349 349 348 346 344 345 347 348 346 345 346 346 346 344 341 340 340 340 341 343 343 342 343 342 342 342 342 342 343 343 343 343 343 342 342 342 341 342 342 341 342 342 342 342 342 341 340 340 340 339 338 337 337 337 336 335 334 333 333 332 332 332 332 332 333 332 331 330 330 329 329 328 327 327 326 326
344 344 346 350 352 353 353 354 355 355 354 353 354 353 349 345 343 344 345 345 345 345 345 345 344 340 339 339 339 341 343 343 342 343 342 341 342 343 343 343 343 343 344 343 342 342 342 342 342 342 341 342 343 343 343 343 341 339 339 339 338 338 338 338 337 336 336 335 335 334 334 334 334 334 333 333 332 332 331 330 330 329 329 328 327 327 326
337 339 342 345 348 349 349 351 353 354 355 356 357 356 353 351 348 346 345 346 347 346 345 344 343 340 339 338 337 340 343 342 341 343 342 342 342 343 343 344 344 343 344 344 342 342 343 343 343 343 342 343 344 344 343 343 341 339 339 339 338 338 338 338 337 337 337 337 337 336 335 334 334 334 333 332 332 332 332 331 330 330 330 330 329 329 328
332 334 337 340 343 345 345 345 347 348 349 350 351 351 351 352 351 349 347 346 347 347 346 345 343 339 338 338 337 340 342 342 341 342 342 341 342 343 342 343 344 344 344 343 342 343 343 344 344 343 343 343 345 345 343 341 340 339 339 339 339 339 338 338 338 338 338 338 338 336 335 334 334 334 334 334 333 333 333 332 332 332 332 332 331 331 331
328 330 332 334 337 340 341 342 342 343 344 345 346 347 348 350 351 352 350 347 346 345 344 344 343 339 338 338 337 338 341 341 340 340 340 340 342 343 343 343 344 344 343 343 343 344 344 344 344 343 343 344 345 344 341 340 340 340 340 340 340 340 339 338 338 338 339 338 338 337 336 336 335 336 336 335 335 335 334 334 334 333 333 333 333 333 333
325 327 329 330 332 334 337 339 340 340 340 341 341 342 344 346 349 351 353 352 351 347 342 342 342 340 339 337 335 337 340 341 340 340 340 340 341 343 344 345 344 343 343 344 344 344 344 344 344 344 344 345 344 342 341 341 341 341 341 340 340 340 339 338 338 338 338 338 338 338 337 337 337 337 337 336 336 335 335 335 335 335 334 334 334 334 333
322 325 326 326 329 331 333 335 336 337 337 336 336 339 341 342 344 346 348 350 351 349 346 343 341 339 338 336 335 337 339 340 339 340 341 341 341 342 344 345 344 343 343 344 345 344 343 344 345 345 344 344 344 342 342 343 343 342 341 340 340 340 339 339 339 338 338 338 339 339 339 338 338 338 338 337 336 336 336 336 336 336 335 335 334 334 333
319 322 324 325 327 329 330 331 332 334 334 334 335 337 339 340 341 342 342 344 345 345 345 344 340 339 339 337 336 338 339 339 340 341 341 341 341 343 344 345 344 343 343 343 343 344 344 345 345 345 344 343 343 344 344 343 343 341 341 340 340 340 340 340 340 340 339 339 339 340 339 339 339 339 338 337 337 336 336 336 336 336 335 334 334 334 333
317 319 322 325 326 326 326 328 330 332 333 334 335 336 337 339 340 339 339 339 340 340 341 341 339 339 339 337 336 338 340 340 340 340 340 341 342 343 343 343 343 343 343 342 343 345 345 344 344 345 343 342 342 343 343 342 342 341 341 340 340 340 340 340 341 341 340 340 339 339 339 339 338 338 338 337 336 336 336 336 336 336 335 334 334 334 334
317 318 320 322 323 323 325 328 330 330 331 333 334 335 337 339 339 337 337 338 338 337 338 338 337 337 338 337 336 337 339 340 340 339 339 340 341 342 342 342 342 343 343 342 342 345 345 343 343 344 343 341 341 342 341 341 341 341 341 341 341 341 341 341 341 341 340 340 339 339 339 339 338 338 337 337 336 336 336 337 336 336 335 334 335 335 334
315 317 317 318 320 322 325 328 330 330 330 332 334 335 335 336 336 336 337 337 335 334 335 337 337 336 336 336 335 335 337 339 339 338 339 339 340 342 342 341 342 343 342 340 342 344 344 343 343 343 342 341 341 341 341 341 341 341 341 341 341 341 341 341 341 341 341 340 340 340 340 340 339 338 337 337 336 336 336 336 336 335 335 335 335 334 334
313 314 315 317 320 323 325 328 329 329 330 331 332 333 333 333 334 335 335 334 333 332 334 335 335 333 333 334 334 334 336 337 338 339 339 339 340 342 342 341 342 343 341 339 341 344 344 343 343 342 341 341 341 341 341 341 340 341 341 341 341 342 342 341 342 342 341 341 340 340 340 340 339 339 338 337 336 336 336 335 335 335 335 335 334 334 335
311 313 314 316 320 323 324 326 328 329 329 330 331 331 332 332 333 332 332 331 332 332 333 333 333 333 333 334 335 334 335 337 338 338 338 338 339 341 342 342 341 341 339 340 343 344 342 342 341 340 340 340 341 341 341 340 340 340 341 341 342 342 342 342 342 342 342 341 341 340 340 340 340 339 338 338 337 336 336 336 335 335 335 335 335 336 337
310 312 313 315 318 322 323 323 326 328 328 328 329 329 330 330 330 330 330 330 331 331 331 332 333 333 333 334 335 335 335 337 338 338 338 338 339 341 341 340 339 339 340 341 343 342 341 340 340 340 340 340 341 341 340 340 340 340 341 341 342 342 342 342 342 342 342 342 341 341 341 341 340 340 339 339 338 337 337 336 336 336 336 336 337 338 338
310 312 313 315 318 322 322 322 324 326 326 325 326 327 328 328 327 327 328 329 330 330 330 331 332 331 331 332 334 335 335 336 337 337 337 339 340 339 338 337 338 340 341 341 341 341 340 339 339 340 340 340 340 340 340 340 340 340 341 341 342 342 342 342 342 342 342 342 342 341 341 341 341 341 340 339 339 338 337 337 337 337 337 338 338 338 338
309 311 313 315 317 320 321 321 322 323 323 323 324 326 327 327 326 326 327 329 329 329 330 330 330 330 330 332 334 334 335 336 336 336 337 339 339 337 337 338 339 341 341 340 339 339 339 339 339 340 340 339 339 340 340 340 340 341 341 341 342 342 342 342 342 342 342 342 341 342 342 342 342 341 340 339 339 339 338 338 338 339 339 339 339 338 339
308 310 313 314 315 318 320 320 319 321 322 322 323 326 327 327 327 327 327 328 328 329 329 329 329 329 330 332 333 333 334 336 336 335 337 338 337 336 338 340 339 339 339 339 338 337 338 338 339 339 339 339 339 339 340 340 340 341 341 341 341 342 342 342 342 342 342 342 341 342 342 342 342 341 341 340 339 339 339 339 340 340 340 340 339 339 339
307 309 312 313 313 315 318 319 319 321 322 323 324 326 327 328 328 327 326 327 328 329 329 330 330 330 330 332 332 332 334 335 335 335 336 338 337 337 338 339 338 337 338 337 336 336 337 338 338 338 339 339 339 339 340 340 341 341 341 341 341 342 342 342 342 342 342 342 342 342 342 342 342 342 341 340 339 339 340 340 341 341 341 340 340 340 340
308 310 311 312 313 314 316 318 319 320 321 323 324 326 327 327 327 326 326 327 328 328 328 328 329 329 329 331 332 333 333 334 334 335 336 337 337 337 337 337 336 337 337 336 336 336 337 337 337 338 338 338 339 339 339 340 341 341 341 341 341 342 342 342 342 342 342 342 342 342 342 343 343 342 341 340 339 340 340 341 341 341 341 341 341 340 340
309 311 311 313 314 314 315 317 319 319 319 321 323 324 325 325 325 325 326 327 328 328 328 328 329 329 329 331 332 333 332 332 334 335 335 335 335 336 336 335 334 335 335 335 335 336 336 336 337 337 338 338 339 339 339 340 341 341 341 341 341 342 342 342 342 342 342 342 342 342 342 343 343 342 341 340 340 339 340 341 341 342 342 341 341 340 340
308 310 310 311 312 312 313 315 317 317 317 319 320 322 323 324 324 324 325 326 328 328 328 327 327 328 330 331 331 331 331 332 333 334 333 333 334 335 334 333 333 334 334 335 335 335 336 336 337 337 338 338 339 339 339 340 340 340 340 341 341 342 342 342 342 342 342 342 342 342 343 343 343 342 341 340 340 340 340 341 342 342 342 342 341 340 340
307 308 309 310 311 312 314 315 316 317 318 319 320 322 323 323 323 323 325 326 327 326 325 326 327 328 329 328 328 329 330 331 332 332 332 331 332 333 332 332 332 333 333 334 334 335 336 336 337 337 337 338 338 339 339 340 340 340 340 341 342 342 342 342 342 342 343 343 343 343 343 343 343 342 341 341 341 341 341 342 342 342 342 341 341 341 340